Location: Équennes
(49.7375°N, 1.9622°E)
Time: 01:35:36
(UTC+00:00)

BlueWalker 3 - Pass Details

Date: 28 January 2023
Orbit: 497 x 514 km, 53.2° (Epoch: 31 March)

Event Time Altitude Azimuth Distance (km) Brightness Sun altitude
Rises 18:35:26 0° 243° (WSW) 2,595 6.9 -18.6°
Reaches altitude 10° 18:37:37 10° 243° (WSW) 1,717 5.7 -18.9°
Maximum altitude 18:41:30 84° 154° (SSE) 517 1.8 -19.5°
Enters shadow 18:42:10 60° 76° (ENE) 588 1.9 -19.6°
